[[{"header":{"parameterUnit":"m.s-1","parameterCategory":1,"la1":30.2991,"la2":30.254,"lo1":-89.0895,"lo2":-89.0444,"dy":0.0017,"dx":0.0017,"nx":28,"ny":28,"refTime":"2025-09-02T21:00:00:Z","depth":0,"parameterNumber":2,"parameterNumberName":"U-component_of_WINDS"},"data":[0,0,0,0,0,0,0,0,0,0,0,0,0,0,0,0,0,0,0,0,0,0,0,0,0,0,0,0,0,0,0,0,0,0,0,0,0,0,0,0,0,0,0,0,0,0,0,0,0,0,0,0,0,0,0,0,0,0,2.1415,2.1415,0,2.1436,2.1436,2.1436,2.1416,2.1415,2.1414,2.1413,2.1434,2.1435,2.1436,0,0,0,0,0,0,0,0,0,0,0,0,0,2.1352,2.1353,2.1415,2.1415,2.1415,2.1436,2.1436,2.1437,2.1416,2.1415,2.1414,2.1413,2.1433,2.1435,2.1436,0,0,0,0,0,0,0,0,0,0,0,0,0,2.1377,2.1354,2.1415,2.1407,2.1407,2.1436,2.1436,2.1437,2.1416,2.1415,2.1414,2.1412,2.1433,2.1435,2.1437,2.1473,0,0,2.1443,2.1443,0,0,0,0,0,0,0,0,2.1375,2.1379,2.1408,2.1408,2.1407,2.1422,2.1422,2.1449,2.1416,2.1413,2.1413,2.1412,2.1431,2.1433,2.1439,2.1474,2.1475,2.1443,2.1444,2.1445,2.1445,0,0,0,0,0,0,0,2.1374,2.1378,2.1423,2.1409,2.1408,2.1402,2.1404,2.1427,2.1428,2.1413,2.1411,2.1414,2.143,2.1438,2.144,2.1475,2.1443,2.1444,2.1446,2.1446,2.1537,2.1538,0,0,0,0,0,0,2.1373,2.1377,2.1422,2.1424,2.1388,2.1404,2.1406,2.1419,2.1428,2.1428,2.1415,2.1413,2.1435,2.1437,2.144,2.1481,2.1445,2.1447,2.1448,2.1536,2.1537,2.1539,0,0,0,0,0,0,2.1372,2.1377,2.1421,2.14,2.1405,2.1406,2.142,2.142,2.1427,2.143,2.143,2.1423,2.1434,2.1438,2.1464,2.1481,2.1447,2.1449,2.1534,2.1536,2.1538,2.1564,0,0,0,0,0,0,2.137,2.1377,2.1392,2.14,2.1406,2.1446,2.1421,2.1421,2.1431,2.1428,2.1437,2.1437,2.1433,2.1462,2.1466,2.1483,2.1451,2.1533,2.1535,2.1537,2.1562,2.1567,2.1571,0,0,0,0,0,2.1368,2.1399,2.1393,2.1399,2.1425,2.1447,2.1451,2.1446,2.1432,2.1446,2.1447,2.1437,2.1479,2.1464,2.147,2.1488,2.1532,2.1534,2.1537,2.156,2.1566,2.1571,0,0,0,0,0,0,2.1394,2.14,2.1394,2.1429,2.1437,2.1444,2.1462,2.1453,2.1466,2.1463,2.1457,2.1459,2.1486,2.149,2.1474,2.1522,2.1503,2.1507,2.1518,2.1524,2.1528,2.1526,2.1452,0,0,0,0,0,2.1403,2.1422,2.1426,2.1457,2.1461,2.1461,2.1471,2.1466,2.1475,2.1478,2.1482,2.149,2.1505,2.1515,2.1529,2.1563,2.1562,2.1577,2.1582,2.1586,2.1588,2.1603,2.1609,2.1548,2.1548,2.1548,0,0,2.1423,2.1429,2.1441,2.1462,2.1468,2.1485,2.1464,2.1485,2.1497,2.1481,2.1506,2.1509,2.1517,2.1547,2.156,2.1551,2.1605,2.1589,2.1592,2.1593,2.1606,2.1612,2.1617,2.155,2.1549,2.1549,0,0,2.1468,2.1476,2.15,2.1507,2.1516,2.1515,2.1521,2.1528,2.1529,2.1554,2.1542,2.1556,2.1583,2.1588,2.1595,2.1639,2.1628,2.1643,2.1667,2.1681,2.1686,2.169,2.1703,2.1708,2.1647,2.1647,2.1647,0,2.1492,2.1519,2.1514,2.1534,2.1542,2.1528,2.1551,2.1558,2.1572,2.1577,2.1566,2.1597,2.1602,2.1631,2.1641,2.1648,2.1652,2.1642,2.1686,2.169,2.1693,2.1706,2.1711,2.1648,2.1648,2.1648,2.1648,0,2.1545,2.1564,2.1582,2.1595,2.1605,2.1627,2.1623,2.1634,2.1628,2.1628,2.1651,2.1657,2.167,2.1677,2.1672,2.1704,2.1698,2.1687,2.1667,2.1701,2.1712,2.1717,2.1651,2.165,2.165,2.1649,0,0,2.1608,2.1616,2.1622,2.1626,2.1635,2.1648,2.1668,2.1681,2.1689,2.1698,2.1713,2.1735,2.1723,2.173,2.1726,2.1739,2.1769,2.1725,2.1725,2.1731,2.1801,2.1808,2.1814,2.1763,2.1764,2.1764,2.18,0,2.1651,2.1685,2.168,2.1713,2.1728,2.1714,2.1731,2.1737,2.1736,2.1748,2.1748,2.1762,2.1748,2.1751,2.1764,2.1763,2.1783,2.1761,2.1774,2.1775,2.177,2.182,2.1828,2.1861,2.1804,2.1805,2.1806,0,2.1706,2.1716,2.175,2.1752,2.1759,2.1774,2.1783,2.1796,2.1801,2.18,2.1807,2.1799,2.1816,2.1798,2.1821,2.1806,2.1811,2.1811,2.1812,2.1812,2.1791,2.1818,2.1872,2.1876,2.1813,2.1812,2.1812,0,2.1744,2.1766,2.1788,2.1792,2.1797,2.1808,2.181,2.1815,2.1822,2.183,2.1834,2.1845,2.185,2.1857,2.1852,2.1839,2.1874,2.1856,2.1872,2.1872,2.1879,2.1878,2.1931,2.1886,2.1886,2.1886,2.1886,0,2.1791,2.1811,2.1805,2.1818,2.184,2.1833,2.1854,2.1855,2.1859,2.1871,2.186,2.1872,2.1865,2.1875,2.1871,2.1889,2.1892,2.189,2.1888,2.1889,2.1889,2.1891,2.1888,2.1887,2.1887,2.1886,2.1886,0,2.1837,2.1834,2.1856,2.1858,2.1859,2.1875,2.1876,2.1887,2.1885,2.1901,2.1904,2.1901,2.1912,2.1908,2.192,2.1917,2.1939,2.1935,2.1937,2.1935,2.195,2.1948,2.2004,2.201,2.1964,2.1964,2.1965,0,2.1866,2.1881,2.1884,2.1891,2.1894,2.1906,2.1912,2.1906,2.1913,2.1919,2.1929,2.1939,2.1947,2.1966,2.1964,2.1972,2.1967,2.1987,2.1969,2.1969,2.1965,2.1963,2.1963,2.199,2.199,2.1991,2.1991,0,2.1917,2.1914,2.1924,2.1932,2.194,2.1947,2.1953,2.1959,2.1952,2.196,2.1971,2.1977,2.1989,2.1998,2.2006,2.2007,2.1997,2.1997,2.2,2.2001,2.2,2.1998,2.1944,2.1995,2.1995,2.1995,2.1994,2.1994,2.1954,2.1965,2.1968,2.1978,2.1982,2.1986,2.1996,2.1995,2.2004,2.2013,2.2008,2.2021,2.2023,2.2032,2.2034,2.2042,2.2035,2.2041,2.2042,2.2043,2.2043,2.2001,2.2044,2.2044,2.2044,2.2044,2.2044,0,2.2001,2.2002,2.2012,2.2019,2.2027,2.2017,2.2022,2.2029,2.204,2.2043,2.205,2.2062,2.207,2.2069,2.2076,2.2083,2.2078,2.2085,2.2083,2.2083,2.2051,2.2046,2.2088,2.2088,2.2088,2.2088,2.2088,2.2088,2.2027,2.2045,2.2042,2.206,2.2061,2.2072,2.2075,2.2079,2.2081,2.2094,2.2101,2.21,2.21,2.2107,2.2114,2.2113,2.2115,2.2123,2.212,2.209,2.2086,2.2081,2.2076,2.2124,2.2124,2.2151,2.2151,2.2151]},{"header":{"parameterUnit":"m.s-1","parameterCategory":1,"la1":30.2991,"la2":30.254,"lo1":-89.0895,"lo2":-89.0444,"dy":0.0017,"dx":0.0017,"nx":28,"ny":28,"refTime":"2025-09-02T21:00:00:Z","depth":0,"parameterNumber":3,"parameterNumberName":"V-component_of_WINDS"},"data":[0,0,0,0,0,0,0,0,0,0,0,0,0,0,0,0,0,0,0,0,0,0,0,0,0,0,0,0,0,0,0,0,0,0,0,0,0,0,0,0,0,0,0,0,0,0,0,0,0,0,0,0,0,0,0,0,0,0,0.8552,0.8553,0,0.8607,0.8608,0.8608,0.8621,0.862,0.862,0.8619,0.8674,0.8676,0.8677,0,0,0,0,0,0,0,0,0,0,0,0,0,0.8454,0.8456,0.8552,0.8553,0.8553,0.8607,0.8608,0.8608,0.8621,0.862,0.862,0.8619,0.8673,0.8675,0.8678,0,0,0,0,0,0,0,0,0,0,0,0,0,0.8501,0.8456,0.8552,0.8566,0.8568,0.8607,0.8608,0.8609,0.8621,0.862,0.862,0.8619,0.8673,0.8675,0.8678,0.8706,0,0,0.8686,0.8687,0,0,0,0,0,0,0,0,0.8499,0.8505,0.8563,0.8565,0.8567,0.8606,0.8593,0.8641,0.8621,0.8601,0.8619,0.8619,0.8652,0.8656,0.8668,0.8709,0.8711,0.8686,0.8688,0.8689,0.869,0,0,0,0,0,0,0,0.8495,0.8503,0.8574,0.8564,0.8566,0.8568,0.8574,0.8602,0.8629,0.8602,0.8603,0.861,0.8653,0.8665,0.8669,0.8712,0.8686,0.8689,0.869,0.8692,0.8776,0.8777,0,0,0,0,0,0,0.849,0.85,0.8572,0.8575,0.8531,0.857,0.8577,0.8594,0.8628,0.8633,0.861,0.861,0.8661,0.8666,0.8671,0.8705,0.8689,0.8692,0.8693,0.8776,0.8776,0.8777,0,0,0,0,0,0,0.8488,0.8496,0.857,0.8538,0.8547,0.8573,0.8592,0.8596,0.8608,0.8634,0.8639,0.8618,0.866,0.8667,0.8697,0.8707,0.8693,0.8695,0.8775,0.8776,0.8777,0.8774,0,0,0,0,0,0,0.8485,0.8495,0.8508,0.8538,0.8549,0.8596,0.8592,0.8597,0.8613,0.8613,0.8643,0.8647,0.8661,0.8693,0.87,0.8711,0.8698,0.8774,0.8775,0.8776,0.8773,0.8775,0.8776,0,0,0,0,0,0.8481,0.8505,0.8508,0.8517,0.8565,0.8597,0.8603,0.8618,0.8614,0.8625,0.8642,0.8646,0.8705,0.8696,0.8704,0.8715,0.8773,0.8775,0.8776,0.8773,0.8774,0.8776,0,0,0,0,0,0,0.8475,0.8509,0.8513,0.8548,0.8569,0.8599,0.8614,0.8619,0.8642,0.8642,0.8659,0.8665,0.8693,0.8707,0.8697,0.8743,0.8739,0.8742,0.8733,0.8735,0.8736,0.8733,0.87,0,0,0,0,0,0.8478,0.8501,0.853,0.8557,0.8567,0.8589,0.8603,0.8613,0.8635,0.8644,0.8663,0.8684,0.8707,0.8722,0.8745,0.8775,0.8781,0.8787,0.8788,0.8789,0.8791,0.8806,0.8809,0.8781,0.8781,0.8781,0,0,0.8483,0.8505,0.8519,0.8556,0.8574,0.8597,0.8596,0.8621,0.8638,0.8648,0.8677,0.8691,0.8716,0.8745,0.8759,0.8758,0.88,0.8791,0.8791,0.8793,0.8808,0.8811,0.8813,0.8782,0.8782,0.8782,0,0,0.8505,0.8524,0.8548,0.8566,0.8592,0.8606,0.8611,0.864,0.865,0.8679,0.8686,0.8706,0.8745,0.8762,0.8775,0.88,0.8805,0.8807,0.8814,0.8828,0.883,0.8832,0.884,0.8843,0.8809,0.8809,0.8809,0,0.8509,0.8545,0.856,0.8584,0.8599,0.8609,0.8632,0.8648,0.868,0.869,0.8688,0.8736,0.8753,0.8786,0.8792,0.8803,0.8809,0.8804,0.8829,0.8831,0.8833,0.8841,0.8843,0.8809,0.8809,0.8809,0.8809,0,0.8547,0.8571,0.8587,0.8618,0.8635,0.8658,0.8676,0.8691,0.8698,0.8711,0.8739,0.876,0.8786,0.8794,0.8802,0.8827,0.8825,0.8826,0.8822,0.8836,0.8843,0.8846,0.8809,0.8809,0.8809,0.8809,0,0,0.8568,0.8605,0.8611,0.8624,0.8653,0.8671,0.8694,0.872,0.8731,0.8752,0.8771,0.8803,0.8803,0.8818,0.8827,0.884,0.8856,0.8838,0.8839,0.884,0.8883,0.8882,0.8886,0.8859,0.8859,0.886,0.8881,0,0.8593,0.8635,0.8648,0.8683,0.8704,0.8712,0.8731,0.875,0.8762,0.8781,0.8794,0.8816,0.8815,0.8824,0.8837,0.8851,0.8865,0.885,0.8875,0.8876,0.8869,0.889,0.889,0.8908,0.8884,0.8884,0.8885,0,0.8628,0.865,0.8686,0.871,0.8719,0.8737,0.876,0.8778,0.8799,0.8807,0.8822,0.883,0.8852,0.8846,0.8876,0.8865,0.8876,0.8884,0.8885,0.8888,0.8881,0.8892,0.8915,0.8918,0.8889,0.8889,0.8889,0,0.8639,0.8676,0.8703,0.8714,0.8743,0.8754,0.8767,0.8787,0.88,0.882,0.8828,0.885,0.8862,0.8878,0.889,0.8885,0.8918,0.8914,0.8924,0.8924,0.8932,0.8931,0.8955,0.8939,0.8939,0.8939,0.8939,0,0.8665,0.8687,0.8708,0.8724,0.8747,0.8761,0.8784,0.8796,0.8814,0.8831,0.8839,0.8855,0.8871,0.8888,0.8898,0.892,0.8925,0.8931,0.8934,0.8931,0.893,0.8938,0.8937,0.8939,0.8939,0.8939,0.8939,0,0.8681,0.8696,0.8725,0.8749,0.8756,0.8772,0.8792,0.8807,0.8818,0.884,0.8846,0.8864,0.8885,0.8899,0.8925,0.8932,0.8955,0.8958,0.8949,0.895,0.8959,0.8958,0.899,0.8994,0.8975,0.8975,0.8975,0,0.8697,0.8714,0.8739,0.8752,0.8764,0.8784,0.8797,0.8811,0.8824,0.8847,0.8859,0.888,0.8898,0.893,0.8945,0.8965,0.8967,0.8977,0.897,0.8966,0.8966,0.8965,0.8966,0.8978,0.8978,0.8978,0.8979,0,0.8723,0.8729,0.8749,0.877,0.8786,0.8803,0.8821,0.883,0.8846,0.886,0.8882,0.8895,0.8922,0.8942,0.8963,0.8974,0.8978,0.898,0.8984,0.8981,0.8974,0.8977,0.8951,0.898,0.898,0.8979,0.8979,0.8979,0.8739,0.8754,0.8773,0.8794,0.8808,0.8824,0.8838,0.8851,0.8869,0.8892,0.8898,0.892,0.8937,0.8966,0.8977,0.8993,0.8992,0.8997,0.8998,0.8999,0.8999,0.8972,0.8997,0.8997,0.8997,0.8997,0.8997,0,0.8765,0.8777,0.8796,0.882,0.8835,0.8838,0.8856,0.8869,0.8888,0.8905,0.8921,0.8945,0.8964,0.8979,0.8998,0.9008,0.901,0.9013,0.9012,0.9014,0.8999,0.8994,0.9011,0.9011,0.9011,0.9011,0.9011,0.9011,0.878,0.8804,0.8811,0.8842,0.8854,0.8875,0.8885,0.8899,0.8912,0.8937,0.8953,0.8963,0.8978,0.8998,0.9015,0.9019,0.9026,0.9027,0.9031,0.9017,0.9016,0.9014,0.9009,0.9029,0.9029,0.9045,0.9045,0.9045]}]]